AA1OV-2 Weather Reports


Display with metric or nautical units.
time (UTC)temp
F
wind
direction
speed
MPH
gust
MPH
rain 1hr
in
rain 24hr
in
rain mn
in
humidity
%
barometer
mb
20200407224239 73 284 7.0 12.0 0.00 0.00 0.00 26 1016.1
20200407223247 74 270 7.0 13.0 0.00 0.00 0.00 23 1016.1
20200407222237 72 301 3.0 8.0 0.00 0.00 0.00 27 1016.2
20200407221247 71 262 4.0 13.0 0.00 0.00 0.00 26 1016.3
20200407220241 71 294 7.0 11.0 0.00 0.00 0.00 26 1016.3
20200407215250 72 254 6.0 10.0 0.00 0.00 0.00 25 1016.4
20200407214239 72 269 10.0 16.0 0.00 0.00 0.00 25 1016.5
20200407213249 72 260 8.0 16.0 0.00 0.00 0.00 25 1016.5
20200407212239 72 290 3.0 11.0 0.00 0.00 0.00 26 1016.8
20200407211253 73 281 8.0 13.0 0.00 0.00 0.00 26 1016.8
20200407210255 72 345 2.0 12.0 0.00 0.00 0.00 25 1017.0
20200407205252 73 245 3.0 14.0 0.00 0.00 0.00 24 1017.3
20200407204246 72 227 5.0 11.0 0.00 0.00 0.00 26 1017.4
20200407203252 73 198 6.0 14.0 0.00 0.00 0.00 28 1017.6
20200407202246 73 284 5.0 13.0 0.00 0.00 0.00 28 1017.7
20200407201236 72 149 0.0 13.0 0.00 0.00 0.00 28 1018.0
20200407200243 71 269 4.0 8.0 0.00 0.00 0.00 28 1018.2
20200407195233 70 210 0.0 1.0 0.00 0.00 0.00 29 1018.2
20200407194243 70 71 3.0 8.0 0.00 0.00 0.00 29 1018.3
20200407193237 69 264 5.0 12.0 0.00 0.00 0.00 28 1018.5
20200407192249 70 292 2.0 8.0 0.00 0.00 0.00 28 1018.5
20200407191237 71 76 4.0 7.0 0.00 0.00 0.00 29 1018.5
20200407190247 70 70 4.0 9.0 0.00 0.00 0.00 28 1018.7
20200407185237 70 109 3.0 7.0 0.00 0.00 0.00 29 1018.9
20200407184250 69 115 2.0 9.0 0.00 0.00 0.00 30 1019.0
20200407183240 70 143 1.0 6.0 0.00 0.00 0.00 28 1019.1
20200407182250 68 152 5.0 11.0 0.00 0.00 0.00 29 1019.3
20200407181238 69 144 0.0 7.0 0.00 0.00 0.00 29 1019.5
20200407180247 67 168 3.0 12.0 0.00 0.00 0.00 30 1019.7
20200407175241 67 148 1.0 7.0 0.00 0.00 0.00 31 1019.7
20200407174250 67 206 4.0 11.0 0.00 0.00 0.00 31 1019.8
20200407173240 66 139 3.0 10.0 0.00 0.00 0.00 32 1019.8
20200407172251 65 129 5.0 12.0 0.00 0.00 0.00 34 1019.9
20200407171240 64 147 1.0 7.0 0.00 0.00 0.00 37 1020.0
20200407170234 64 145 2.0 9.0 0.00 0.00 0.00 34 1020.1
20200407165244 64 132 4.0 7.0 0.00 0.00 0.00 35 1020.1
20200407164233 63 43 3.0 10.0 0.00 0.00 0.00 35 1020.1
20200407163243 62 94 3.0 12.0 0.00 0.00 0.00 36 1020.1
20200407162233 62 143 2.0 5.0 0.00 0.00 0.00 36 1020.1
20200407161243 60 100 3.0 9.0 0.00 0.00 0.00 38 1020.1
20200407160236 60 148 2.0 5.0 0.00 0.00 0.00 38 1020.1
20200407155245 59 99 1.0 4.0 0.00 0.00 0.00 40 1020.2
20200407154233 58 141 2.0 4.0 0.00 0.00 0.00 42 1020.0
20200407153241 58 105 1.0 4.0 0.00 0.00 0.00 41 1019.9
20200407152253 58 131 1.0 3.0 0.00 0.00 0.00 41 1019.9
20200407151243 56 115 1.0 3.0 0.00 0.00 0.00 42 1019.9
20200407150252 55 83 0.0 5.0 0.00 0.00 0.00 43 1019.9
20200407145242 55 96 2.0 5.0 0.00 0.00 0.00 43 1019.8
20200407144250 55 99 3.0 4.0 0.00 0.00 0.00 43 1019.8
20200407143240 55 120 1.0 5.0 0.00 0.00 0.00 44 1019.7
20200407142234 56 147 1.0 4.0 0.00 0.00 0.00 43 1019.7
20200407141244 56 141 0.0 0.0 0.00 0.00 0.00 42 1019.5
20200407140234 55 213 0.0 0.0 0.00 0.00 0.00 45 1019.5
20200407135244 53 223 0.0 1.0 0.00 0.00 0.00 47 1019.3
20200407134234 51 197 1.0 2.0 0.00 0.00 0.00 49 1019.1
20200407133247 50 199 0.0 0.0 0.00 0.00 0.00 49 1019.0
20200407132237 48 207 0.0 0.0 0.00 0.00 0.00 52 1018.9
20200407131246 47 244 0.0 0.0 0.00 0.00 0.00 53 1018.8
20200407130236 46 265 0.0 0.0 0.00 0.00 0.00 53 1018.7
20200407125246 47 245 0.0 0.0 0.00 0.00 0.00 52 1018.5
20200407124239 47 233 0.0 1.0 0.00 0.00 0.00 52 1018.3
20200407123248 47 230 0.0 1.0 0.00 0.00 0.00 52 1018.4
20200407122238 47 232 0.0 0.0 0.00 0.00 0.00 52 1018.4
20200407121248 47 232 0.0 0.0 0.00 0.00 0.00 51 1018.3
20200407120239 48 267 0.0 0.0 0.00 0.00 0.00 50 1018.4
20200407115234 48 227 0.0 0.0 0.00 0.00 0.00 50 1018.3
20200407114242 50 277 0.0 0.0 0.00 0.00 0.00 47 1018.2
20200407113252 50 222 0.0 0.0 0.00 0.00 0.00 46 1018.2
20200407112241 51 82 0.0 0.0 0.00 0.00 0.00 45 1018.2
20200407111251 50 253 0.0 1.0 0.00 0.00 0.00 45 1018.2
20200407110240 52 166 0.0 0.0 0.00 0.00 0.00 43 1018.2
20200407105234 51 211 0.0 0.0 0.00 0.00 0.00 44 1018.3
20200407104244 51 247 0.0 0.0 0.00 0.00 0.00 44 1018.3
20200407103252 52 281 0.0 0.0 0.00 0.00 0.00 43 1018.3
20200407102242 51 281 0.0 0.0 0.00 0.00 0.00 44 1018.4
20200407101252 52 245 0.0 0.0 0.00 0.00 0.00 44 1018.3
20200407100243 52 177 1.0 3.0 0.00 0.00 0.00 43 1018.4
20200407094240 52 148 0.0 4.0 0.00 0.00 0.00 41 1018.5
20200407093248 52 161 1.0 2.0 0.00 0.00 0.00 40 1018.5
20200407092239 53 131 0.0 1.0 0.00 0.00 0.00 41 1018.6
20200407091232 53 185 0.0 2.0 0.00 0.00 0.00 40 1018.7
20200407090243 54 155 1.0 4.0 0.00 0.00 0.00 41 1018.8
20200407085233 54 228 4.0 7.0 0.00 0.00 0.00 41 1018.7
20200407084243 54 245 4.0 6.0 0.00 0.00 0.00 41 1018.7
20200407083252 54 277 4.0 7.0 0.00 0.00 0.00 40 1018.7
20200407082243 55 262 4.0 7.0 0.00 0.00 0.00 39 1018.7
20200407081235 55 264 1.0 4.0 0.00 0.00 0.00 38 1018.8
20200407080244 55 276 3.0 5.0 0.00 0.00 0.00 37 1018.8
20200407075235 55 217 1.0 5.0 0.00 0.00 0.00 37 1018.9
20200407074244 55 269 0.0 3.0 0.00 0.00 0.00 38 1018.8
20200407073233 56 225 0.0 3.0 0.00 0.00 0.00 37 1018.8
20200407072248 56 254 0.0 1.0 0.00 0.00 0.00 37 1018.8
20200407071237 57 289 0.0 1.0 0.00 0.00 0.00 34 1018.9
20200407070247 56 271 0.0 3.0 0.00 0.00 0.00 35 1019.0
20200407065238 56 219 0.0 0.0 0.00 0.00 0.00 35 1019.0
20200407064247 57 86 0.0 1.0 0.00 0.00 0.00 33 1018.8
20200407063241 58 150 0.0 4.0 0.00 0.00 0.00 33 1018.8
20200407062251 58 167 0.0 3.0 0.00 0.00 0.00 33 1018.7
20200407061241 59 268 2.0 6.0 0.00 0.00 0.00 32 1018.6
20200407060249 59 243 2.0 6.0 0.00 0.00 0.00 32 1018.6
20200407055238 59 273 3.0 8.0 0.00 0.00 0.00 32 1018.4
20200407054251 60 240 4.0 9.0 0.00 0.00 0.00 31 1018.4
20200407053240 60 260 3.0 8.0 0.00 0.00 0.00 31 1018.4
20200407052250 60 271 3.0 9.0 0.00 0.00 0.00 30 1018.4
20200407051238 60 214 5.0 10.0 0.00 0.00 0.00 29 1018.3
20200407050247 60 212 3.0 9.0 0.00 0.00 0.00 28 1018.4
20200407045242 60 241 4.0 9.0 0.00 0.00 0.00 28 1018.3
20200407044251 59 240 1.0 7.0 0.00 0.00 0.00 28 1018.2
20200407043239 60 225 2.0 5.0 0.00 0.00 0.00 28 1018.0
20200407042250 60 189 1.0 6.0 0.00 0.00 0.00 28 1017.9
20200407041239 60 230 0.0 3.0 0.00 0.00 0.00 27 1017.7
20200407040232 61 239 1.0 6.0 0.00 0.00 0.00 26 1017.6
20200407035244 62 264 3.0 9.0 0.00 0.00 0.00 25 1017.4
20200407034233 62 262 3.0 8.0 0.00 0.00 0.00 25 1017.2
20200407033243 62 259 1.0 10.0 0.00 0.00 0.00 25 1017.1
20200407032233 62 270 2.0 9.0 0.00 0.00 0.00 25 1017.1
20200407031242 62 269 1.0 7.0 0.00 0.00 0.00 26 1017.0
20200407030236 62 216 2.0 7.0 0.00 0.00 0.00 26 1016.8
20200407025247 63 255 4.0 10.0 0.00 0.00 0.00 26 1016.7
20200407024235 63 146 5.0 11.0 0.00 0.00 0.00 26 1016.4
20200407023244 64 225 3.0 11.0 0.00 0.00 0.00 25 1016.2
20200407022234 64 125 5.0 12.0 0.00 0.00 0.00 24 1016.2
20200407021245 65 266 6.0 12.0 0.00 0.00 0.00 23 1016.0
20200407020233 65 244 6.0 12.0 0.00 0.00 0.00 23 1015.8
20200407015243 66 265 5.0 13.0 0.00 0.00 0.00 22 1015.8
20200407014232 66 252 5.0 11.0 0.00 0.00 0.00 21 1015.6
20200407013241 67 306 6.0 15.0 0.00 0.00 0.00 20 1015.5
20200407012235 68 243 6.0 16.0 0.00 0.00 0.00 20 1015.2
20200407011245 69 231 6.0 13.0 0.00 0.00 0.00 19 1015.0
20200407010233 69 300 6.0 13.0 0.00 0.00 0.00 18 1014.9
20200407005243 70 266 6.0 14.0 0.00 0.00 0.00 18 1014.7
20200407004232 70 268 7.0 14.0 0.00 0.00 0.00 17 1014.7
20200407003245 71 231 5.0 10.0 0.00 0.00 0.00 16 1014.8
20200407002235 71 308 4.0 11.0 0.00 0.00 0.00 16 1014.6
20200407001244 72 278 5.0 12.0 0.00 0.00 0.00 16 1014.6
20200407000251 73 225 4.0 14.0 0.00 0.00 0.00 16 1014.5
20200406235241 72 293 6.0 12.0 0.00 0.00 0.00 15 1014.7
20200406234235 73 210 7.0 13.0 0.00 0.00 0.00 14 1014.4
20200406233243 73 263 7.0 16.0 0.00 0.00 0.00 14 1014.5
20200406232233 74 266 4.0 13.0 0.00 0.00 0.00 13 1014.3
20200406231242 73 254 6.0 13.0 0.00 0.00 0.00 13 1014.4
20200406230232 73 258 5.0 15.0 0.00 0.00 0.00 13 1014.5
20200406225242 74 264 6.0 15.0 0.00 0.00 0.00 13 1014.5